Location: Home
(42.5358°N, 72.7383°W)
Time: 21:50:53
(UTC-05:00)

Vanguard 1 Rocket - Pass Details

Date: 01 December 2021
Orbit: 651 x 4225 km, 34.3° (Epoch: 26 January)

Event Time Altitude Azimuth Distance (km) Brightness Sun altitude
Exits shadow 04:29:34 31° 243° (WSW) 3,713 10.0 -27.3°
Maximum altitude 04:38:46 66° 173° (S) 3,391 10.2 -25.6°
Drops below altitude 10° 05:03:08 10° 99° (E) 7,400 13.2 -21.2°
Sets 05:09:12 0° 97° (E) 8,466 13.9 -20.1°
